Regional Weather Roundup
Issued by NWS Jackson, KY

Home | Current Version | Previous Version | Text Only | Print | Product List | Glossary Off
Versions: 1 2 3 4 5 6 7 8 9 10 11 12 13 14 15 16 17 18 19 20 21 22 23 24 25 26 27 28 29 30 31 32 33 34 35 36 37 38 39 40 41 42 43 44 45 46 47 48 49 50

000
ASUS43 KJKL 201110
RWRJKL

EAST KENTUCKY HOURLY WEATHER ROUNDUP
NATIONAL WEATHER SERVICE JACKSON KY
700 AM EDT MON APR 20 2015

NOTE: "FAIR" INDICATES FEW OR NO CLOUDS BELOW 12,000 FEET WITH
NO SIGNIFICANT WEATHER AND/OR OBSTRUCTIONS TO VISIBILITY.

* THESE REPORTS ARE NOT UNDER NWS QUALITY CONTROL AND MAY NOT
  REPORT WEATHER SUCH AS PRECIPITATION AND FOG.

KYZ079-080-083-085-087-088-110-112-115-119-120-201200
...EASTERN KENTUCKY...

CITY           SKY/WX    TMP DP  RH WIND       PRES   REMARKS
JACKSON        LGT RAIN  58  56  93 VRB3      29.59R
LONDON         LGT RAIN  60  49  66 SW15G24   29.59F
SOMERSET*      CLOUDY    54  54 100 S6        29.59S
MONTICELLO*    CLOUDY    58  54  86 SW8       29.61S
MIDDLESBORO*   RAIN      59  53  80 SW13G20   29.68S
HARLAN APT*    CLOUDY    57  57 100 S5G20     29.68R
HAZARD APT*    LGT RAIN  61  57  88 SW12G17   29.60R
BLACK MTN*       N/A     52  52 100 SW5         N/A
PIKEVILLE APT* PTCLDY    59  54  82 S8        29.60F
BIG SANDY*     PTSUNNY   61  55  82 S12       29.59F
$$

KYZ035-036-041-042-044-050-067-078-099-201200
...CENTRAL KENTUCKY...

CITY           SKY/WX    TMP DP  RH WIND       PRES   REMARKS
MT STERLING*   CLOUDY    57  54  88 SW7G16    29.54S
FLEMING/MASON* CLOUDY    59  54  82 SW14G20   29.52S
DANVILLE*      CLOUDY    54  52  94 SW12G17   29.55S
RICHMOND*      CLOUDY    57  52  82 S7        29.55S
LEXINGTON      CLOUDY    57  53  86 SW13      29.52S
FRANKFORT      CLOUDY    57  53  86 SW9       29.50R
$$

KYZ091>093-OHZ055-061-077-WVZ005-015-034-035-042-201200
...SOUTHERN OHIO/WEST VIRGINIA...

CITY           SKY/WX    TMP DP  RH WIND       PRES   REMARKS
COVINGTON      CLOUDY    59  56  89 S10       29.45F
COLUMBUS       PTCLDY    58  55  90 S7        29.47S
DAYTON         CLOUDY    59  55  87 S12       29.43F
WILMINGTON     MOCLDY    58  55  90 S12       29.46F
HUNTINGTON     CLEAR     60  57  89 S9        29.54F
CHARLESTON     MOCLDY    62  54  74 S12       29.60S
PINEVILLE*     CLEAR     52  52 100 MISG      29.72S FOG
BECKLEY        CLEAR     55  51  86 SW9       29.69S
BLUEFIELD      PTCLDY    57  50  77 SW10      29.71F
$$

VAZ002-007-008-TNZ017-027-036-066-071-201200
...SOUTHWEST VIRGINIA/EAST TENNESSEE...

CITY           SKY/WX    TMP DP  RH WIND       PRES   REMARKS
WISE*          MOCLDY    57  54  88 S7        29.69F
JONESVILLE*    LGT RAIN  59  59 100 SW20G32   29.71R
ABINGDON*      PTCLDY    57  57 100 CALM      29.70F
BRISTOL        FOG       51  51 100 CALM      29.67F VSB 1/8
KNOXVILLE      LGT RAIN  57  55  93 S10       29.68F
OAK RIDGE      CLOUDY    58  56  93 CALM      29.67F
CROSSVILLE     CLOUDY    56  51  84 VRB7      29.65F
NASHVILLE      MOCLDY    59  56  89 S9        29.61R
$$

...KEY TO REMARKS...
VSB - VISIBILITY IN MILES
WCI - WIND CHILL INDEX
HX  - HEAT INDEX

$$



USA.gov is the U.S. government's official web portal to all federal, state and local government web resources and services.